FW0579 Weather Reports


Display with metric or nautical units.
time (UTC)temp
F
wind
direction
speed
MPH
gust
MPH
rain 1hr
in
rain 24hr
in
rain mn
in
humidity
%
barometer
mb
20260508140049 52 279 0.0 0.0 0.00 0.00 0.00 88 1016.7
20260508134540 52 281 0.0 0.0 0.00 0.00 0.00 88 1016.5
20260508133037 52 281 0.0 0.0 0.00 0.00 0.00 88 1016.4
20260508131633 52 275 1.0 8.0 0.00 0.00 0.00 87 1016.4
20260508130034 52 277 1.0 4.0 0.00 0.00 0.00 87 1016.4
20260508124534 52 283 2.0 6.0 0.00 0.00 0.00 87 1016.3
20260508123034 52 253 2.0 9.0 0.00 0.00 0.00 87 1016.3
20260508120028 52 267 1.0 8.0 0.00 0.00 0.00 87 1016.2
20260508114527 52 269 1.0 8.0 0.00 0.00 0.00 87 1016.2
20260508113025 52 281 3.0 9.0 0.00 0.00 0.00 87 1016.2
20260508110021 53 270 0.0 0.0 0.00 0.00 0.00 86 1016.1
20260508104519 53 270 0.0 0.0 0.00 0.00 0.00 86 1016.0
20260508103020 53 270 0.0 0.0 0.00 0.00 0.00 86 1015.9
20260508101615 54 270 0.0 0.0 0.00 0.00 0.00 86 1015.8
20260508100022 54 270 0.0 0.0 0.00 0.00 0.00 86 1015.9
20260508094513 54 270 0.0 0.0 0.00 0.00 0.00 85 1016.0
20260508093010 54 270 0.0 0.0 0.00 0.00 0.00 85 1016.0
20260508090007 55 263 1.0 4.0 0.00 0.00 0.00 85 1015.8
20260508084506 55 255 0.0 5.0 0.00 0.00 0.00 85 1015.8
20260508083003 56 252 1.0 4.0 0.00 0.00 0.00 84 1015.9
20260508080011 57 252 1.0 3.0 0.00 0.00 0.00 83 1016.0
20260508074502 57 252 1.0 7.0 0.00 0.00 0.00 84 1016.0
20260508073101 57 265 1.0 4.0 0.00 0.00 0.00 83 1015.7
20260508071557 58 245 0.0 1.0 0.00 0.00 0.00 83 1015.6
20260508070057 58 245 0.0 2.0 0.00 0.00 0.00 83 1015.6
20260508064557 58 247 1.0 4.0 0.00 0.00 0.00 82 1015.5
20260508063052 59 247 3.0 7.0 0.00 0.00 0.00 82 1015.5
20260508061547 59 234 4.0 8.0 0.00 0.00 0.00 81 1015.2
20260508060044 60 238 4.0 10.0 0.00 0.00 0.00 80 1015.2
20260508054546 61 240 6.0 11.0 0.00 0.00 0.00 78 1015.2
20260508053041 61 238 4.0 9.0 0.00 0.00 0.00 77 1015.2
20260508051635 63 248 3.0 8.0 0.00 0.00 0.00 75 1015.2
20260508050048 63 257 2.0 7.0 0.00 0.00 0.00 74 1015.0
20260508044532 64 259 2.0 6.0 0.00 0.00 0.00 72 1015.0
20260508043030 65 265 1.0 6.0 0.00 0.00 0.00 70 1014.9
20260508041629 66 275 2.0 8.0 0.00 0.00 0.00 68 1014.8
20260508040040 67 264 3.0 8.0 0.00 0.00 0.00 66 1014.8
20260508034538 68 271 3.0 11.0 0.00 0.00 0.00 64 1014.6
20260508033025 70 260 3.0 8.0 0.00 0.00 0.00 63 1014.4
20260508031624 72 360 5.0 9.0 0.00 0.00 0.00 60 1014.3
20260508030023 73 270 6.0 11.0 0.00 0.00 0.00 59 1014.2
20260508024525 75 237 7.0 13.0 0.00 0.00 0.00 55 1014.0
20260508023019 78 238 5.0 8.0 0.00 0.00 0.00 56 1013.8
20260508021519 80 248 5.0 11.0 0.00 0.00 0.00 51 1013.8
20260508020019 81 269 5.0 13.0 0.00 0.00 0.00 51 1013.8
20260508014515 82 259 4.0 10.0 0.00 0.00 0.00 51 1013.9
20260508013014 83 252 6.0 10.0 0.00 0.00 0.00 49 1013.8
20260508011514 84 261 5.0 11.0 0.00 0.00 0.00 45 1014.0
20260508010014 84 248 4.0 10.0 0.00 0.00 0.00 43 1013.9
20260508004510 84 255 6.0 13.0 0.00 0.00 0.00 43 1013.9
20260508003009 85 240 4.0 8.0 0.00 0.00 0.00 44 1013.9
20260508001608 86 270 1.0 7.0 0.00 0.00 0.00 47 1013.9
20260508000008 86 287 2.0 10.0 0.00 0.00 0.00 47 1013.8
20260507234511 86 239 7.0 11.0 0.00 0.00 0.00 47 1014.1
20260507233013 86 234 2.0 10.0 0.00 0.00 0.00 47 1014.3
20260507231608 87 355 1.0 7.0 0.00 0.00 0.00 47 1014.4
20260507230009 86 238 2.0 8.0 0.00 0.00 0.00 47 1014.6
20260507224501 87 259 1.0 4.0 0.00 0.00 0.00 46 1015.0
20260507223113 86 258 2.0 7.0 0.00 0.00 0.00 48 1015.0
20260507221555 85 349 1.0 4.0 0.00 0.00 0.00 49 1015.3
20260507220054 85 246 3.0 8.0 0.00 0.00 0.00 48 1015.4
20260507214550 83 122 1.0 7.0 0.00 0.00 0.00 51 1015.7
20260507213049 83 253 2.0 9.0 0.00 0.00 0.00 51 1016.0
20260507211555 83 244 1.0 7.0 0.00 0.00 0.00 52 1016.3
20260507210104 82 284 2.0 7.0 0.00 0.00 0.00 51 1016.5
20260507204546 81 268 5.0 8.0 0.00 0.00 0.00 52 1016.5
20260507203039 79 230 2.0 8.0 0.00 0.00 0.00 54 1016.6
20260507201535 79 209 2.0 8.0 0.00 0.00 0.00 55 1016.8
20260507200041 79 233 3.0 8.0 0.00 0.00 0.00 56 1016.8
20260507194546 77 245 1.0 6.0 0.00 0.00 0.00 56 1016.9
20260507193028 76 296 4.0 10.0 0.00 0.00 0.00 58 1017.3
20260507191523 75 232 1.0 5.0 0.00 0.00 0.00 59 1017.3
20260507190036 74 277 3.0 7.0 0.00 0.00 0.00 61 1017.5
20260507184522 73 35 1.0 10.0 0.00 0.00 0.00 63 1017.7
20260507183017 72 225 4.0 10.0 0.00 0.00 0.00 64 1017.8
20260507181510 71 259 3.0 7.0 0.00 0.00 0.00 65 1017.8
20260507180012 70 301 2.0 6.0 0.00 0.00 0.00 66 1017.8
20260507174510 69 240 3.0 7.0 0.00 0.00 0.00 68 1017.8
20260507173007 68 292 3.0 7.0 0.00 0.00 0.00 70 1017.9
20260507171558 67 237 2.0 7.0 0.00 0.00 0.00 70 1017.9
20260507170058 66 268 2.0 4.0 0.00 0.00 0.00 74 1018.1
20260507164627 64 251 1.0 4.0 0.00 0.00 0.00 76 1018.1
20260507163053 64 253 2.0 4.0 0.00 0.00 0.00 78 1018.0
20260507161553 62 248 1.0 5.0 0.00 0.00 0.00 83 1018.1
20260507160042 60 269 2.0 4.0 0.00 0.00 0.00 85 1018.2
20260507154537 59 244 2.0 5.0 0.00 0.00 0.00 87 1018.2
20260507153040 58 248 2.0 8.0 0.00 0.00 0.00 88 1018.2
20260507151532 57 284 1.0 6.0 0.00 0.00 0.00 89 1018.4
20260507150029 56 254 1.0 5.0 0.00 0.00 0.00 90 1018.3
20260507144528 55 252 3.0 8.0 0.00 0.00 0.00 90 1018.3
20260507143022 55 244 2.0 6.0 0.00 0.00 0.00 90 1018.2
20260507141519 54 259 2.0 7.0 0.00 0.00 0.00 90 1018.4